Snowfall_Accumulation
0.8 0.6 0.7 0.6 0.4 0.3 0.4 0.6 1.5 2.1 0.6 0.3 0.2 0.0 0.1 0.1 0.1 0.1 0.1 0.1 0.2 0.1 0.1 0.0 0.0 0.0 0.0 0.0 0.0 0.0 0.0 0.0 0.0 0.0 0.0 0.0 0.0 0.0
0.5 0.6 0.7 0.7 0.7 0.4 0.4 0.5 0.9 1.6 1.6 0.4 0.3 0.1 0.1 0.1 0.1 0.1 0.1 0.1 0.2 0.3 0.1 0.1 0.1 0.0 0.0 0.0 0.0 0.0 0.0 0.0 0.0 0.0 0.0 0.0 0.0 0.0
0.9 0.7 0.7 0.8 0.9 0.9 0.5 0.4 0.7 1.0 1.5 0.7 0.4 0.2 0.1 0.3 0.3 0.1 0.1 0.1 0.1 0.2 0.3 0.1 0.1 0.1 0.1 0.1 0.1 0.1 0.1 0.0 0.0 0.0 0.0 0.0 0.0 0.0
1.0 0.8 0.8 0.8 1.0 1.2 0.9 1.0 0.9 0.9 1.5 1.5 0.8 0.6 0.5 0.4 0.5 0.4 0.2 0.2 0.2 0.2 0.2 0.1 0.1 0.2 0.2 0.2 0.2 0.2 0.2 0.1 0.1 0.1 0.0 0.1 0.1 0.1
1.1 1.2 1.3 1.1 1.3 1.2 1.0 1.1 1.1 1.0 1.4 1.9 1.5 0.8 0.7 0.5 0.7 0.7 0.2 0.2 0.1 0.2 0.2 0.1 0.1 0.1 0.2 0.2 0.2 0.2 0.2 0.1 0.1 0.1 0.1 0.1 0.1 0.1
1.4 1.3 1.5 1.5 1.9 1.5 1.7 1.8 2.2 2.3 2.4 2.4 2.4 2.1 1.8 1.1 0.9 1.0 0.7 0.6 0.3 0.3 0.2 0.2 0.2 0.2 0.1 0.2 0.2 0.2 0.3 0.2 0.2 0.2 0.3 0.2 0.2 0.2
1.3 1.4 1.6 1.8 1.8 2.2 2.3 2.7 2.9 2.9 3.3 3.7 3.6 3.1 2.4 2.1 1.5 1.3 1.5 1.0 0.8 0.6 0.9 0.5 0.5 0.2 0.3 0.3 0.1 0.1 0.2 0.3 0.5 0.5 0.5 0.5 0.4 0.4
2.0 2.1 1.9 2.0 2.0 1.7 1.7 1.8 2.7 4.6 5.4 4.7 4.2 3.7 2.5 2.4 1.9 2.0 2.2 2.4 2.2 1.2 1.4 1.0 0.8 0.6 0.6 0.4 0.2 0.2 0.3 0.5 0.6 0.7 0.7 0.7 0.7 0.7
3.0 2.9 2.6 2.1 1.9 1.5 1.6 1.4 1.9 2.2 3.0 3.6 4.1 2.9 2.4 2.4 3.0 3.5 3.3 3.5 3.1 2.1 1.7 1.7 1.0 1.2 0.7 0.7 0.3 0.3 0.4 0.5 0.7 0.8 0.8 0.8 0.9 0.8
3.1 2.9 2.7 2.2 1.9 1.8 2.1 2.2 1.6 1.4 1.4 1.7 2.2 1.9 1.9 2.1 3.0 4.5 4.1 3.9 2.5 1.7 1.7 2.7 1.7 1.9 0.9 0.7 0.7 0.8 0.8 0.7 0.7 1.0 1.0 0.8 1.0 0.9
2.4 2.0 1.7 1.6 1.6 2.3 3.1 2.8 1.7 1.1 0.9 1.2 1.4 1.8 2.0 2.2 2.7 4.1 5.2 6.3 5.7 2.2 2.0 3.1 2.0 2.1 2.0 1.2 0.8 0.9 1.1 0.7 0.7 0.8 1.0 0.9 1.0 1.2
2.1 1.9 1.6 1.8 2.3 3.2 3.8 3.8 3.3 1.7 1.5 1.0 0.9 0.8 1.0 1.0 1.5 2.8 4.6 7.6 7.6 5.5 2.3 3.5 3.5 3.9 4.4 1.6 1.1 0.9 1.0 0.6 0.4 0.6 0.7 1.1 1.4 1.8
3.0 2.2 1.7 1.8 2.6 3.3 3.9 4.0 4.0 3.5 2.7 2.3 1.9 1.5 1.1 1.0 1.1 1.5 2.4 5.6 9.1 7.7 3.2 6.1 7.5 5.9 8.1 4.6 1.7 1.3 1.3 0.9 0.5 0.5 0.6 0.8 1.5 2.7
3.9 2.3 2.1 2.9 3.1 2.9 3.0 3.1 3.1 3.2 3.5 3.5 3.3 2.7 2.3 2.1 1.7 1.5 1.9 2.5 3.4 4.4 3.1 5.9 11.3 9.7 11.7 9.4 5.3 3.0 2.3 1.6 1.4 1.5 1.3 1.4 1.8 2.5
3.0 3.0 3.1 3.4 3.5 3.1 3.1 2.9 2.8 2.9 3.7 4.1 3.9 3.0 2.2 2.2 2.1 2.3 2.4 2.3 2.0 2.1 2.0 2.7 6.5 8.3 11.7 12.6 8.2 4.8 3.6 2.7 2.1 2.5 3.0 2.5 2.7 3.1
3.2 2.8 3.1 3.1 3.1 3.0 3.2 3.5 3.4 3.8 4.0 4.3 3.5 2.8 2.4 2.8 3.3 3.3 4.1 4.6 5.5 4.7 2.6 2.1 3.5 7.4 10.7 8.6 8.5 7.2 4.8 5.4 4.1 4.4 4.5 3.8 3.7 3.5
5.5 5.0 4.3 3.9 4.2 4.0 3.8 3.7 3.9 4.0 4.5 4.2 4.2 4.6 4.2 4.2 4.1 4.0 5.2 6.5 7.8 6.5 5.2 4.2 4.6 5.0 7.0 8.1 9.5 6.6 5.1 4.9 4.6 5.8 6.5 6.9 4.3 3.5
6.2 6.5 5.3 4.7 4.5 4.8 4.9 5.0 4.6 4.9 5.2 5.6 5.9 5.9 6.3 6.6 6.0 5.3 6.0 7.9 8.4 6.8 6.2 5.6 6.9 9.2 8.7 6.6 5.5 5.7 5.3 5.2 5.0 5.5 7.8 10.3 7.9 4.6
6.3 5.6 4.9 4.7 4.9 5.3 5.5 5.9 6.0 5.7 6.1 7.1 7.6 7.3 7.9 8.2 8.2 8.0 7.7 8.4 8.4 7.6 6.7 6.5 9.2 14.4 15.7 9.6 5.4 4.0 6.3 7.3 6.8 6.9 7.7 9.8 10.7 7.1
5.1 5.3 5.2 5.0 5.4 5.6 6.1 6.8 6.4 6.3 7.0 7.8 8.3 8.2 8.8 9.8 10.3 9.6 8.9 9.4 9.8 9.0 8.9 7.3 8.6 13.3 17.9 14.2 10.2 6.0 4.4 8.2 11.2 11.8 8.9 7.6 7.5 5.3
5.7 5.5 5.8 5.9 6.3 6.7 6.9 7.5 7.8 8.1 8.1 8.7 9.0 8.8 9.8 11.0 11.0 9.6 9.9 10.1 11.0 11.2 10.3 7.3 6.3 7.9 12.7 17.4 15.8 8.5 6.9 6.0 7.4 13.5 14.9 15.1 12.4 9.0
5.8 5.9 6.2 6.5 7.0 7.5 7.6 8.3 8.6 8.2 8.8 9.2 9.2 9.2 9.6 11.0 11.3 10.6 10.8 11.6 10.9 10.6 10.3 8.3 7.7 10.2 14.3 18.5 13.9 8.6 7.7 6.8 5.3 5.6 8.1 13.9 21.3 19.1
7.1 7.0 7.1 7.0 7.4 7.7 8.3 8.6 8.7 8.4 8.4 9.3 9.4 9.7 10.4 11.4 10.6 11.0 11.0 11.2 12.2 12.3 12.0 11.6 10.4 10.9 11.9 12.2 12.5 10.7 8.8 7.8 6.4 6.7 7.0 6.3 7.0 8.0